GW3646 Weather Reports


Display with metric or nautical units.
time (UTC)temp
F
wind
direction
speed
MPH
gust
MPH
rain 1hr
in
rain 24hr
in
rain mn
in
humidity
%
barometer
mb
20260509041012 53 24 0.0 0.0 0.00 0.00 0.00 76 1010.8
20260509040507 53 24 0.0 0.0 0.00 0.00 0.00 76 1010.8
20260509040025 53 24 0.0 0.0 0.00 0.00 0.00 75 1010.8
20260509035509 54 24 0.0 0.0 0.00 0.00 0.00 75 1010.8
20260509035008 54 24 0.0 0.0 0.00 0.00 0.00 74 1010.7
20260509034528 54 24 0.0 0.0 0.00 0.00 0.00 73 1010.7
20260509034010 55 24 0.0 0.0 0.00 0.00 0.00 73 1010.7
20260509033505 55 24 0.0 0.0 0.00 0.00 0.00 72 1010.6
20260509033012 55 24 0.0 0.0 0.00 0.00 0.00 71 1010.5
20260509032506 56 24 0.0 0.0 0.00 0.00 0.00 70 1010.4
20260509032005 56 24 0.0 0.0 0.00 0.00 0.00 68 1010.4
20260509031521 57 24 0.0 0.0 0.00 0.00 0.00 68 1010.4
20260509031007 57 24 0.0 0.0 0.00 0.00 0.00 67 1010.4
20260509030508 58 24 0.0 0.0 0.00 0.00 0.00 66 1010.4
20260509030033 58 24 0.0 0.0 0.00 0.00 0.00 65 1010.3
20260509025506 59 24 0.0 0.0 0.00 0.00 0.00 64 1010.2
20260509025007 59 24 0.0 0.0 0.00 0.00 0.00 63 1010.2
20260509024526 60 24 0.0 0.0 0.00 0.00 0.00 61 1010.1
20260509024011 60 24 0.0 0.0 0.00 0.00 0.00 60 1010.0
20260509023510 61 24 0.0 0.0 0.00 0.00 0.00 59 1010.0
20260509023029 62 24 0.0 0.0 0.00 0.00 0.00 58 1009.9
20260509022510 63 24 0.0 0.0 0.00 0.00 0.00 56 1009.9
20260509022010 63 24 0.0 0.0 0.00 0.00 0.00 55 1009.8
20260509021519 64 24 0.0 0.0 0.00 0.00 0.00 54 1009.8
20260509021010 65 24 0.0 0.0 0.00 0.00 0.00 52 1009.8
20260509020510 65 24 0.0 0.0 0.00 0.00 0.00 51 1009.7
20260509020020 66 24 0.0 0.0 0.00 0.00 0.00 50 1009.7
20260509015509 67 24 0.0 0.0 0.00 0.00 0.00 48 1009.6
20260509015008 67 24 0.0 0.0 0.00 0.00 0.00 47 1009.5
20260509014528 68 24 0.0 0.0 0.00 0.00 0.00 46 1009.4
20260509014006 69 24 0.0 0.0 0.00 0.00 0.00 44 1009.4
20260509013511 69 24 0.0 1.0 0.00 0.00 0.00 44 1009.2
20260509013043 70 24 0.0 1.0 0.00 0.00 0.00 43 1009.1
20260509012509 70 24 0.0 1.0 0.00 0.00 0.00 43 1009.1
20260509012008 71 24 0.0 3.0 0.00 0.00 0.00 42 1009.0
20260509011528 71 24 0.0 3.0 0.00 0.00 0.00 41 1009.0
20260509011009 71 53 0.0 4.0 0.00 0.00 0.00 41 1009.0
20260509010504 71 62 1.0 4.0 0.00 0.00 0.00 41 1008.9
20260509010024 72 55 1.0 5.0 0.00 0.00 0.00 41 1009.0
20260509005509 72 52 0.0 5.0 0.00 0.00 0.00 41 1008.9
20260509005006 72 44 0.0 4.0 0.00 0.00 0.00 41 1008.9
20260509004538 72 46 1.0 7.0 0.00 0.00 0.00 40 1008.8
20260509004008 73 61 2.0 7.0 0.00 0.00 0.00 40 1008.7
20260509003511 73 70 1.0 8.0 0.00 0.00 0.00 40 1008.6
20260509003032 73 69 3.0 8.0 0.00 0.00 0.00 39 1008.6
20260509002509 73 71 2.0 7.0 0.00 0.00 0.00 39 1008.4
20260509002004 74 98 1.0 13.0 0.00 0.00 0.00 42 1008.3
20260509001510 74 71 3.0 13.0 0.00 0.00 0.00 41 1008.2
20260509001003 74 65 3.0 9.0 0.00 0.00 0.00 41 1008.1
20260509000503 74 48 3.0 9.0 0.00 0.00 0.00 41 1008.1
20260509000010 75 15 3.0 9.0 0.00 0.00 0.00 40 1008.0
20260508235503 75 55 1.0 7.0 0.00 0.00 0.00 40 1008.1
20260508235004 75 81 2.0 8.0 0.00 0.00 0.00 41 1007.9
20260508234510 75 63 3.0 9.0 0.00 0.00 0.00 39 1007.9
20260508234003 76 309 1.0 9.0 0.00 0.00 0.00 38 1007.8
20260508233503 76 30 1.0 9.0 0.00 0.00 0.00 37 1007.8
20260508233003 76 59 3.0 9.0 0.00 0.00 0.00 39 1007.8
20260508232502 77 81 2.0 8.0 0.00 0.00 0.00 40 1007.7
20260508232003 77 5 1.0 8.0 0.00 0.00 0.00 41 1007.7
20260508231508 77 77 2.0 8.0 0.00 0.00 0.00 41 1007.6
20260508231004 77 244 3.0 10.0 0.00 0.00 0.00 41 1007.6
20260508230504 78 18 2.0 10.0 0.00 0.00 0.00 41 1007.5
20260508230033 78 5 2.0 5.0 0.00 0.00 0.00 42 1007.6
20260508225503 77 341 0.0 6.0 0.00 0.00 0.00 42 1007.5
20260508225006 77 72 3.0 6.0 0.00 0.00 0.00 39 1007.6
20260508224513 78 341 2.0 8.0 0.00 0.00 0.00 39 1007.6
20260508224004 77 257 3.0 8.0 0.00 0.00 0.00 40 1007.6
20260508223503 77 76 3.0 8.0 0.00 0.00 0.00 39 1007.5
20260508223017 78 70 2.0 10.0 0.00 0.00 0.00 39 1007.4
20260508222504 78 97 3.0 10.0 0.00 0.00 0.00 39 1007.5
20260508222003 78 5 3.0 9.0 0.00 0.00 0.00 37 1007.5
20260508221506 78 82 3.0 8.0 0.00 0.00 0.00 37 1007.3
20260508221005 78 57 2.0 8.0 0.00 0.00 0.00 37 1007.4
20260508220503 78 5 1.0 5.0 0.00 0.00 0.00 39 1007.5
20260508220015 78 75 2.0 5.0 0.00 0.00 0.00 37 1007.4
20260508215507 78 61 2.0 5.0 0.00 0.00 0.00 38 1007.5
20260508215004 78 59 2.0 6.0 0.00 0.00 0.00 42 1007.5
20260508214516 78 81 1.0 6.0 0.00 0.00 0.00 41 1007.5
20260508214003 77 42 1.0 10.0 0.00 0.00 0.00 42 1007.5
20260508213503 77 79 2.0 10.0 0.00 0.00 0.00 44 1007.5
20260508213020 77 279 2.0 9.0 0.00 0.00 0.00 43 1007.4
20260508212504 76 335 2.0 7.0 0.00 0.00 0.00 45 1007.3
20260508212004 75 88 1.0 5.0 0.00 0.00 0.00 46 1007.3
20260508211517 74 69 1.0 7.0 0.00 0.00 0.00 47 1007.2
20260508211007 74 36 2.0 7.0 0.00 0.00 0.00 47 1007.2
20260508210507 73 9 1.0 4.0 0.00 0.00 0.00 50 1007.3
20260508210007 73 314 0.0 3.0 0.00 0.00 0.00 52 1007.2
20260508205504 73 67 1.0 4.0 0.00 0.00 0.00 52 1007.3
20260508205005 73 65 1.0 4.0 0.00 0.00 0.00 52 1007.5
20260508204510 72 15 1.0 3.0 0.00 0.00 0.00 50 1007.8
20260508204002 72 267 1.0 5.0 0.00 0.00 0.00 50 1008.1
20260508203505 72 352 0.0 6.0 0.00 0.00 0.00 51 1008.2
20260508203018 71 292 1.0 6.0 0.00 0.00 0.00 51 1007.9
20260508202510 72 17 1.0 6.0 0.00 0.00 0.00 52 1007.9
20260508202007 72 19 2.0 4.0 0.00 0.00 0.00 52 1007.9
20260508201516 72 349 1.0 4.0 0.00 0.00 0.00 51 1007.9
20260508201004 71 333 1.0 8.0 0.00 0.00 0.00 50 1007.9
20260508200504 71 57 1.0 8.0 0.00 0.00 0.00 51 1007.9
20260508200018 71 17 2.0 7.0 0.00 0.00 0.00 52 1008.1
20260508195505 71 5 2.0 7.0 0.00 0.00 0.00 51 1008.3
20260508195011 71 343 0.0 5.0 0.00 0.00 0.00 52 1008.3
20260508194508 72 350 1.0 8.0 0.00 0.00 0.00 51 1008.2
20260508194004 72 5 1.0 9.0 0.00 0.00 0.00 51 1008.3
20260508193506 72 40 2.0 10.0 0.00 0.00 0.00 50 1008.3
20260508193012 73 11 0.0 10.0 0.00 0.00 0.00 52 1008.6
20260508192506 73 36 1.0 9.0 0.00 0.00 0.00 51 1008.4
20260508192006 73 309 2.0 9.0 0.00 0.00 0.00 53 1008.6
20260508191524 73 294 0.0 4.0 0.00 0.00 0.00 52 1008.2
20260508191005 73 248 1.0 4.0 0.00 0.00 0.00 50 1008.2
20260508190504 73 349 1.0 4.0 0.00 0.00 0.00 50 1008.3
20260508190022 73 240 1.0 4.0 0.00 0.00 0.00 49 1007.9
20260508185504 73 207 0.0 7.0 0.00 0.00 0.00 49 1007.8
20260508185010 74 207 0.0 8.0 0.00 0.00 0.00 47 1007.9
20260508184537 74 183 2.0 8.0 0.00 0.00 0.00 46 1008.3
20260508184009 74 234 2.0 8.0 0.00 0.00 0.00 46 1008.6
20260508183508 75 261 2.0 8.0 0.00 0.00 0.00 45 1008.4
20260508183007 75 268 0.0 7.0 0.00 0.00 0.00 46 1008.3
20260508182504 76 227 3.0 9.0 0.00 0.00 0.00 43 1008.8
20260508182006 77 254 1.0 10.0 0.00 0.00 0.00 43 1008.5
20260508181535 77 175 2.0 10.0 0.00 0.00 0.00 43 1008.8
20260508181007 77 246 2.0 9.0 0.00 0.00 0.00 44 1008.9
20260508180507 76 71 1.0 9.0 0.00 0.00 0.00 46 1009.0
20260508180023 75 360 3.0 9.0 0.00 0.00 0.00 46 1009.1
20260508175508 74 250 3.0 9.0 0.00 0.00 0.00 47 1009.2
20260508175011 74 217 3.0 10.0 0.00 0.00 0.00 47 1009.2
20260508174519 74 265 2.0 10.0 0.00 0.00 0.00 46 1009.2
20260508174008 74 352 3.0 12.0 0.00 0.00 0.00 46 1009.3
20260508173507 74 60 2.0 12.0 0.00 0.00 0.00 48 1009.3
20260508173020 74 219 3.0 12.0 0.00 0.00 0.00 47 1009.4
20260508172515 74 248 5.0 12.0 0.00 0.00 0.00 46 1009.2
20260508172008 74 261 2.0 10.0 0.00 0.00 0.00 47 1009.2
20260508171514 74 273 3.0 10.0 0.00 0.00 0.00 46 1009.2
20260508171009 75 307 3.0 9.0 0.00 0.00 0.00 46 1009.2
20260508170503 75 314 2.0 9.0 0.00 0.00 0.00 48 1009.2
20260508170016 74 29 1.0 11.0 0.00 0.00 0.00 49 1009.1
20260508165506 74 243 1.0 11.0 0.00 0.00 0.00 48 1009.2
20260508165006 74 251 2.0 11.0 0.00 0.00 0.00 48 1009.2
20260508164520 74 219 3.0 11.0 0.00 0.00 0.00 50 1009.1
20260508164010 73 340 2.0 10.0 0.00 0.00 0.00 50 1009.2
20260508163509 73 248 2.0 10.0 0.00 0.00 0.00 48 1009.2
20260508163024 73 228 3.0 9.0 0.00 0.00 0.00 50 1009.4
20260508162510 72 306 2.0 9.0 0.00 0.00 0.00 51 1009.4
20260508162013 73 251 2.0 8.0 0.00 0.00 0.00 50 1009.5
20260508161522 72 226 1.0 9.0 0.00 0.00 0.00 51 1009.6
20260508161008 72 259 3.0 11.0 0.00 0.00 0.00 50 1009.6
20260508160507 72 211 3.0 11.0 0.00 0.00 0.00 50 1009.6
20260508160016 72 282 2.0 11.0 0.00 0.00 0.00 52 1009.6
20260508155503 71 238 4.0 11.0 0.00 0.00 0.00 51 1009.6
20260508155007 71 249 2.0 9.0 0.00 0.00 0.00 54 1009.7
20260508154520 71 270 3.0 9.0 0.00 0.00 0.00 52 1009.8
20260508154009 71 239 1.0 9.0 0.00 0.00 0.00 53 1009.9
20260508153510 71 232 3.0 9.0 0.00 0.00 0.00 54 1009.9
20260508153022 70 275 2.0 9.0 0.00 0.00 0.00 56 1010.0
20260508152510 69 243 4.0 9.0 0.00 0.00 0.00 55 1010.1
20260508152003 70 268 3.0 14.0 0.00 0.00 0.00 54 1010.1
20260508151511 70 254 5.0 14.0 0.00 0.00 0.00 54 1010.1
20260508151007 69 232 3.0 11.0 0.00 0.00 0.00 57 1010.2
20260508150504 68 274 2.0 10.0 0.00 0.00 0.00 58 1010.3
20260508150018 68 214 2.0 8.0 0.00 0.00 0.00 58 1010.5
20260508145504 68 232 3.0 9.0 0.00 0.00 0.00 59 1010.5
20260508145003 67 191 2.0 9.0 0.00 0.00 0.00 59 1010.6
20260508144536 67 204 1.0 9.0 0.00 0.00 0.00 60 1010.7
20260508144008 66 202 3.0 10.0 0.00 0.00 0.00 61 1010.8
20260508143507 66 242 1.0 10.0 0.00 0.00 0.00 61 1010.7
20260508143003 66 218 3.0 8.0 0.00 0.00 0.00 61 1010.7
20260508142501 66 239 3.0 7.0 0.00 0.00 0.00 61 1010.8
20260508142003 65 136 1.0 8.0 0.00 0.00 0.00 63 1010.9
20260508141507 65 263 3.0 8.0 0.00 0.00 0.00 61 1011.0
20260508141003 65 251 2.0 8.0 0.00 0.00 0.00 61 1011.0
20260508140502 65 246 3.0 8.0 0.00 0.00 0.00 61 1010.9
20260508140009 65 242 3.0 8.0 0.00 0.00 0.00 62 1010.9
20260508135505 64 221 2.0 7.0 0.00 0.00 0.00 64 1010.9
20260508135003 63 153 2.0 10.0 0.00 0.00 0.00 64 1011.0
20260508134518 63 250 2.0 10.0 0.00 0.00 0.00 63 1011.2
20260508134005 63 271 2.0 9.0 0.00 0.00 0.00 65 1011.0
20260508133508 63 271 4.0 9.0 0.00 0.00 0.00 65 1010.9
20260508133023 62 271 1.0 9.0 0.00 0.00 0.00 67 1010.8
20260508132505 61 216 2.0 6.0 0.00 0.00 0.00 68 1010.8
20260508132007 60 252 2.0 9.0 0.00 0.00 0.00 68 1010.8
20260508131503 60 233 2.0 9.0 0.00 0.00 0.00 70 1010.8
20260508131002 59 256 2.0 9.0 0.00 0.00 0.00 70 1010.8
20260508130502 58 186 2.0 9.0 0.00 0.00 0.00 70 1010.7
20260508130008 58 229 3.0 9.0 0.00 0.00 0.00 71 1010.8
20260508125503 57 257 0.0 7.0 0.00 0.00 0.00 72 1010.8
20260508125003 57 261 1.0 7.0 0.00 0.00 0.00 72 1010.7
20260508124510 56 246 1.0 4.0 0.00 0.00 0.00 73 1010.7
20260508124006 56 241 0.0 4.0 0.00 0.00 0.00 73 1010.7
20260508123507 56 257 0.0 4.0 0.00 0.00 0.00 73 1010.7
20260508123016 55 250 1.0 7.0 0.00 0.00 0.00 73 1010.6
20260508122505 55 284 1.0 7.0 0.00 0.00 0.00 73 1010.7
20260508122007 55 270 0.0 6.0 0.00 0.00 0.00 73 1010.6
20260508121524 54 275 1.0 4.0 0.00 0.00 0.00 73 1010.6
20260508121009 54 270 0.0 2.0 0.00 0.00 0.00 73 1010.5
20260508120509 54 270 0.0 2.0 0.00 0.00 0.00 74 1010.6
20260508120007 54 270 0.0 3.0 0.00 0.00 0.00 72 1010.8
20260508115501 54 257 0.0 4.0 0.00 0.00 0.00 73 1010.6
20260508115001 54 266 0.0 7.0 0.00 0.00 0.00 72 1010.7
20260508114511 54 252 1.0 8.0 0.00 0.00 0.00 71 1010.6
20260508114009 54 260 2.0 8.0 0.00 0.00 0.00 71 1010.7
20260508113507 54 267 0.0 4.0 0.00 0.00 0.00 71 1010.6
20260508113013 54 263 0.0 3.0 0.00 0.00 0.00 71 1010.7
20260508112508 54 250 0.0 3.0 0.00 0.00 0.00 71 1010.6
20260508112008 54 258 0.0 3.0 0.00 0.00 0.00 70 1010.6
20260508111517 54 261 0.0 3.0 0.00 0.00 0.00 70 1010.7
20260508111009 54 261 0.0 4.0 0.00 0.00 0.00 70 1010.6
20260508110506 54 261 0.0 4.0 0.00 0.00 0.00 69 1010.7
20260508110043 54 261 0.0 3.0 0.00 0.00 0.00 69 1010.7
20260508105508 54 257 1.0 3.0 0.00 0.00 0.00 69 1010.7
20260508105010 54 264 0.0 4.0 0.00 0.00 0.00 68 1010.7
20260508104524 54 264 0.0 4.0 0.00 0.00 0.00 68 1010.7
20260508104003 54 259 0.0 3.0 0.00 0.00 0.00 68 1010.6
20260508103504 54 259 0.0 3.0 0.00 0.00 0.00 68 1010.5
20260508103010 55 259 0.0 4.0 0.00 0.00 0.00 67 1010.6
20260508102503 55 250 0.0 4.0 0.00 0.00 0.00 67 1010.6
20260508102007 55 250 0.0 3.0 0.00 0.00 0.00 66 1010.6
20260508101515 55 245 0.0 4.0 0.00 0.00 0.00 66 1010.6
20260508101007 55 237 0.0 4.0 0.00 0.00 0.00 66 1010.6
20260508100508 55 275 0.0 3.0 0.00 0.00 0.00 66 1010.5
20260508100021 55 265 0.0 3.0 0.00 0.00 0.00 66 1010.5
20260508095505 55 254 0.0 3.0 0.00 0.00 0.00 65 1010.5
20260508095008 55 254 0.0 3.0 0.00 0.00 0.00 65 1010.5
20260508094525 55 254 0.0 4.0 0.00 0.00 0.00 64 1010.6
20260508094009 55 252 0.0 4.0 0.00 0.00 0.00 63 1010.5
20260508093508 55 222 0.0 3.0 0.00 0.00 0.00 63 1010.4
20260508093029 56 232 0.0 4.0 0.00 0.00 0.00 62 1010.5
20260508092504 56 249 1.0 7.0 0.00 0.00 0.00 61 1010.5
20260508092003 56 183 0.0 8.0 0.00 0.00 0.00 61 1010.6
20260508091514 56 227 1.0 8.0 0.00 0.00 0.00 61 1010.4
20260508091006 57 229 1.0 6.0 0.00 0.00 0.00 60 1010.4
20260508090506 57 261 1.0 4.0 0.00 0.00 0.00 60 1010.3
20260508090024 57 271 1.0 7.0 0.00 0.00 0.00 59 1010.4
20260508085506 57 263 1.0 7.0 0.00 0.00 0.00 59 1010.4
20260508085007 57 263 0.0 7.0 0.00 0.00 0.00 58 1010.4
20260508084520 58 263 1.0 7.0 0.00 0.00 0.00 58 1010.5
20260508084008 58 246 1.0 7.0 0.00 0.00 0.00 57 1010.4
20260508083506 58 245 2.0 9.0 0.00 0.00 0.00 57 1010.4
20260508083025 58 149 2.0 9.0 0.00 0.00 0.00 56 1010.6
20260508082509 58 220 2.0 8.0 0.00 0.00 0.00 56 1010.6
20260508082012 58 243 1.0 8.0 0.00 0.00 0.00 56 1010.5
20260508081528 58 240 1.0 7.0 0.00 0.00 0.00 56 1010.5
20260508081003 58 264 2.0 7.0 0.00 0.00 0.00 55 1010.6
20260508080507 58 257 3.0 8.0 0.00 0.00 0.00 55 1010.5
20260508080014 58 253 0.0 8.0 0.00 0.00 0.00 55 1010.6
20260508075507 58 196 2.0 4.0 0.00 0.00 0.00 55 1010.7
20260508075006 58 232 1.0 7.0 0.00 0.00 0.00 55 1010.7
20260508074521 58 230 0.0 7.0 0.00 0.00 0.00 55 1010.7
20260508074009 59 251 1.0 6.0 0.00 0.00 0.00 54 1010.8
20260508073509 59 229 0.0 6.0 0.00 0.00 0.00 54 1010.9
20260508073022 59 234 0.0 5.0 0.00 0.00 0.00 54 1011.0
20260508072510 59 256 1.0 5.0 0.00 0.00 0.00 53 1011.1
20260508072012 60 217 1.0 7.0 0.00 0.00 0.00 52 1011.1
20260508071525 60 247 2.0 10.0 0.00 0.00 0.00 52 1011.0
20260508071011 60 251 2.0 10.0 0.00 0.00 0.00 52 1010.9
20260508070512 60 180 2.0 7.0 0.00 0.00 0.00 51 1010.9
20260508070029 60 190 2.0 6.0 0.00 0.00 0.00 51 1010.9
20260508065507 60 262 1.0 6.0 0.00 0.00 0.00 50 1010.9
20260508065004 61 262 0.0 7.0 0.00 0.00 0.00 50 1010.9
20260508064516 61 265 1.0 7.0 0.00 0.00 0.00 49 1011.0
20260508064004 61 212 2.0 12.0 0.00 0.00 0.00 49 1011.0
20260508063506 61 155 2.0 12.0 0.00 0.00 0.00 49 1010.9
20260508063021 61 252 2.0 8.0 0.00 0.00 0.00 50 1010.9
20260508062511 61 259 2.0 8.0 0.00 0.00 0.00 50 1011.0
20260508062003 61 277 3.0 8.0 0.00 0.00 0.00 50 1011.0
20260508061506 61 292 1.0 7.0 0.00 0.00 0.00 50 1011.1
20260508061007 61 254 1.0 8.0 0.00 0.00 0.00 50 1011.0
20260508060503 61 211 2.0 8.0 0.00 0.00 0.00 50 1011.1
20260508060010 60 257 1.0 6.0 0.00 0.00 0.00 50 1011.2
20260508055504 60 265 0.0 3.0 0.00 0.00 0.00 50 1011.2
20260508055004 60 258 1.0 7.0 0.00 0.00 0.00 50 1011.2
20260508054514 60 223 0.0 7.0 0.00 0.00 0.00 50 1011.2
20260508054007 60 231 0.0 6.0 0.00 0.00 0.00 50 1011.2
20260508053504 60 255 0.0 6.0 0.00 0.00 0.00 50 1011.2
20260508053032 60 258 1.0 6.0 0.00 0.00 0.00 50 1011.2
20260508052510 60 261 0.0 4.0 0.00 0.00 0.00 50 1011.2
20260508052003 60 266 0.0 4.0 0.00 0.00 0.00 49 1011.3
20260508051504 60 244 0.0 4.0 0.00 0.00 0.00 50 1011.4
20260508051005 60 257 1.0 2.0 0.00 0.00 0.00 49 1011.3
20260508050505 60 163 1.0 5.0 0.00 0.00 0.00 49 1011.4
20260508050006 60 252 0.0 6.0 0.00 0.00 0.00 50 1011.3
20260508045504 60 252 0.0 6.0 0.00 0.00 0.00 49 1011.4
20260508045003 60 297 0.0 3.0 0.00 0.00 0.00 49 1011.4
20260508044510 61 248 0.0 3.0 0.00 0.00 0.00 48 1011.4
20260508044004 61 269 0.0 7.0 0.00 0.00 0.00 48 1011.4
20260508043503 61 251 1.0 7.0 0.00 0.00 0.00 47 1011.4
20260508043018 61 295 0.0 3.0 0.00 0.00 0.00 47 1011.5
20260508042507 61 283 0.0 6.0 0.00 0.00 0.00 47 1011.6
20260508042007 61 249 1.0 6.0 0.00 0.00 0.00 47 1011.6
20260508041538 61 248 0.0 3.0 0.00 0.00 0.00 47 1011.6